Flag for Reunion (French) Weather past 2 weeks in Saint-Pierre, Reunion (French)

Now
77 °F

Sunny.


Feels Like: 79 °F
Forecast: 65 / 79 °F
Wind: 6 mph from Southwest

Location: Saint Airport-Pierre

Current Time: Jul 30, 2015 at 11:18:25 AM

Latest Report: Jul 30, 2015 at 11:00 AM


Visibility: N/A

Pressure: 30.15 "Hg

Humidity: 65%

Dew point: 64 °F

Location of Saint-PierreLocation

Historic Weather in Saint-Pierre — Graph

°F

Saint-Pierre temperature yesterday

Maximum temperature yesterday: 79 °F (at 11:00 AM)
Minimum temperature yesterday: 68 °F (at 12:00 AM)
Average temperature yesterday: 72 °F

Past Weeks' High & Low Weather Summary

 TemperatureHumidityPressure
High82 °F (Jul 16, 12:00 PM)83% (Jul 15, 5:30 PM)30.24 "Hg (Jul 15, 5:30 PM)
Low63 °F (Jul 21, 4:00 AM)32% (Jul 24, 3:00 PM)30.07 "Hg (Jul 27, 3:00 PM)
Average72 °F61%30.16 "Hg
* Reported Jul 15 10:00 AM — Jul 30 10:00 AM, Saint-Pierre, Weather by CustomWeather, © 2015

Note: Actual official high and low records may vary slightly from our data, if they occured in-between our weather recording intervals... More about our weather records

Advertising

Saint-Pierre weather history for previous 24 hours

 ConditionsComfort  
Time TempWeatherWind HumidityBarometerVisibility
10:00 AM
Thu, Jul 30
77 °FSunny.5 mph65%30.18 "HgN/A
9:30 AM77 °FSunny.3 mph61%30.15 "HgN/A
9:00 AM77 °FSunny.5 mph61%30.15 "HgN/A
8:30 AM73 °FSunny.6 mph61%30.15 "HgN/A
7:30 AM70 °FSunny.7 mph69%30.12 "HgN/A
7:00 AM66 °FSunny.8 mph78%30.12 "HgN/A
6:30 AM66 °FSunny.8 mph78%30.12 "HgN/A
6:00 AM66 °FSunny.No wind78%30.12 "HgN/A
5:30 AM66 °FClear.2 mph78%30.09 "HgN/A
5:00 AM66 °FClear.6 mph78%30.09 "HgN/A
4:30 AM66 °FClear.8 mph78%30.09 "HgN/A
4:00 AM68 °FPassing clouds.8 mph73%30.12 "HgN/A
3:30 AM70 °FMostly cloudy.5 mph73%30.12 "HgN/A
3:00 AM70 °FOvercast.6 mph73%30.12 "HgN/A
2:30 AM70 °FPassing clouds.6 mph69%30.12 "HgN/A
2:00 AM70 °FPassing clouds.6 mph73%30.15 "HgN/A
1:30 AM68 °FPassing clouds.6 mph73%30.15 "HgN/A
1:00 AM70 °FClear.5 mph73%30.15 "HgN/A
12:30 AM70 °FClear.7 mph73%30.15 "HgN/A
12:00 AM70 °FClear.7 mph73%30.15 "HgN/A
11:30 PM
Wed, Jul 29
68 °FClear.8 mph78%30.15 "HgN/A
11:00 PM70 °FClear.6 mph73%30.15 "HgN/A
10:30 PM70 °FClear.7 mph73%30.15 "HgN/A
10:00 PM70 °FClear.6 mph73%30.15 "HgN/A
9:30 PM70 °FPassing clouds.5 mph73%30.15 "HgN/A
9:00 PM70 °FOvercast.3 mph73%30.15 "HgN/A
8:30 PM72 °FPassing clouds.5 mph73%30.15 "HgN/A
8:00 PM72 °FClear.5 mph73%30.15 "HgN/A
7:30 PM72 °FClear.5 mph73%30.12 "HgN/A
7:00 PM72 °FPassing clouds.6 mph78%30.12 "HgN/A
6:30 PM73 °FPassing clouds.1 mph74%30.12 "HgN/A
6:00 PM73 °FPassing clouds.3 mph69%30.12 "Hg4 mi
5:30 PM75 °FMostly cloudy.2 mph69%30.12 "HgN/A
5:00 PM75 °FPartly cloudy.3 mph69%30.12 "HgN/A
4:30 PM75 °FOvercast.6 mph69%30.09 "HgN/A
4:00 PM77 °FPartly sunny.7 mph65%30.09 "HgN/A
3:30 PM77 °FScattered clouds.7 mph65%30.09 "HgN/A
3:00 PM77 °FPartly sunny.7 mph65%30.09 "HgN/A
2:30 PM77 °FPartly sunny.8 mph65%30.09 "HgN/A
2:00 PM77 °FPartly sunny.7 mph65%30.09 "HgN/A
1:30 PM77 °FPartly sunny.7 mph65%30.12 "HgN/A
1:00 PM79 °FSunny.9 mph61%30.12 "HgN/A
12:30 PM77 °FPartly sunny.8 mph65%30.12 "HgN/A
12:00 PM79 °FSunny.8 mph61%30.12 "HgN/A
11:30 AM79 °FSunny.9 mph61%30.15 "HgN/A
11:00 AM79 °FPartly sunny.10 mph61%30.15 "HgN/A
Weather by CustomWeather, © 2015

See weather overviewHow to use our weather pages